Weather History for Columbus, OH

Change the Weather History Date:

Tuesday, October 1, 2013

  Actual Average Record
Temperature  
Mean Temperature 70 °F 60 °F  
Max Temperature 81 °F 71 °F 89 °F (1952)
Min Temperature 58 °F 50 °F 30 °F (1899)
Degree Days  
Heating Degree Days 0 6  
Month to date heating degree days 0 6  
Since 1 July heating degree days 53 75  
Cooling Degree Days 5 2  
Month to date cooling degree days 5 2  
Year to date cooling degree days 1142 1013  
Growing Degree Days 19 (Base 50)    
Moisture  
Dew Point 57 °F    
Average Humidity 66    
Maximum Humidity 90    
Minimum Humidity 42    
Precipitation  
Precipitation 0.00 in 0.08 in 2.23 in (1881)
Month to date precipitation 0.00 0.08  
Year to date precipitation 29.16 30.61  
Snow  
Snow 0.00 in 0.00 in - ()
Month to date snowfall 0.0 0.0  
Since 1 July snowfall 0.0 0.0  
Since 1 September snowfall 0.0 0.0  
Snow Depth 0.00 in    
Sea Level Pressure  
Sea Level Pressure 30.04 in    
Wind  
Wind Speed 5 mph (SW)    
Max Wind Speed 16 mph    
Max Gust Speed 21 mph    
Visibility 8 miles    
Events      
T = Trace of Precipitation, MM = Missing Value Source: NWS Daily Summary

Daily Weather History Graph

Daily Weather History Graph

Search for Another Location

Airport:

Trip Planner

Search our weather history database for the weather conditions in past years. The results will help you decide how hot, cold, wet, or windy it might be!

Date:

Astronomy

Oct. 01, 2013 Rise Set
Actual Time 7:28 AM EDT 7:13 PM EDT
Civil Twilight 7:01 AM EDT 7:40 PM EDT
Nautical Twilight 6:29 AM EDT 8:11 PM EDT
Astronomical Twilight 5:57 AM EDT 8:43 PM EDT
Moon 4:01 AM EDT 5:16 PM EDT
Length of Visible Light 12h 39m
Length of Day
11h 45m
Waning Crescent, 12% of the Moon is Illuminated
Oct 1
Waning Crescent
Oct 4
New
Oct 11
First Quarter
Oct 18
Full
Oct 26
Last Quarter

Hourly Weather History & Observations

Time (EDT) Temp. Heat Index Dew Point Humidity Pressure Visibility Wind Dir Wind Speed Gust Speed Precip Events Conditions
12:51 AM 62.1 °F - 57.9 °F 86% 30.01 in 7.0 mi Calm Calm - N/A   Scattered Clouds
1:51 AM 61.0 °F - 57.9 °F 90% 30.01 in 6.0 mi Calm Calm - N/A   Scattered Clouds
2:51 AM 60.1 °F - 57.0 °F 90% 30.02 in 7.0 mi Calm Calm - N/A   Partly Cloudy
3:51 AM 59.0 °F - 55.9 °F 90% 30.02 in 6.0 mi Calm Calm - N/A   Clear
4:51 AM 59.0 °F - 55.9 °F 90% 30.02 in 7.0 mi Calm Calm - N/A   Clear
5:51 AM 59.0 °F - 55.9 °F 90% 30.04 in 5.0 mi Calm Calm - N/A   Clear
6:51 AM 59.0 °F - 55.9 °F 90% 30.06 in 4.0 mi Calm Calm - N/A   Clear
7:51 AM 59.0 °F - 55.9 °F 90% 30.07 in 5.0 mi SE 3.5 mph - N/A   Clear
8:51 AM 61.0 °F - 57.9 °F 90% 30.08 in 7.0 mi SE 3.5 mph - N/A   Partly Cloudy
9:51 AM 64.9 °F - 59.0 °F 81% 30.09 in 7.0 mi Calm Calm - N/A   Partly Cloudy
10:51 AM 70.0 °F - 60.1 °F 71% 30.09 in 9.0 mi SSW 5.8 mph - N/A   Partly Cloudy
11:51 AM 73.0 °F - 60.1 °F 64% 30.07 in 10.0 mi Calm Calm - N/A   Scattered Clouds
12:51 PM 75.0 °F - 59.0 °F 57% 30.06 in 10.0 mi West 11.5 mph - N/A   Mostly Cloudy
1:51 PM 75.9 °F - 57.9 °F 54% 30.04 in 10.0 mi WSW 9.2 mph - N/A   Mostly Cloudy
2:51 PM 80.1 °F 80.2 °F 55.9 °F 43% 30.03 in 10.0 mi WSW 15.0 mph 19.6 mph N/A   Mostly Cloudy
3:51 PM 79.0 °F - 55.9 °F 45% 30.02 in 10.0 mi WSW 8.1 mph - N/A   Scattered Clouds
4:51 PM 80.1 °F 80.2 °F 55.9 °F 43% 30.01 in 10.0 mi SW 13.8 mph 18.4 mph N/A   Scattered Clouds
5:51 PM 79.0 °F - 57.0 °F 47% 30.01 in 10.0 mi West 13.8 mph 18.4 mph N/A   Mostly Cloudy
6:51 PM 75.9 °F - 55.9 °F 50% 30.01 in 10.0 mi West 9.2 mph - N/A   Partly Cloudy
7:51 PM 73.9 °F - 57.0 °F 55% 30.02 in 10.0 mi SW 4.6 mph - N/A   Partly Cloudy
8:51 PM 72.0 °F - 57.0 °F 59% 30.02 in 10.0 mi SW 3.5 mph - N/A   Partly Cloudy
9:51 PM 70.0 °F - 57.9 °F 65% 30.03 in 10.0 mi Calm Calm - N/A   Clear
10:51 PM 66.9 °F - 57.9 °F 73% 30.04 in 10.0 mi Calm Calm - N/A   Clear
11:51 PM 66.0 °F - 57.9 °F 75% 30.04 in 10.0 mi SW 5.8 mph - N/A   Clear